Retour au catalogue

TIANHUI 2-01B

ActifScienceSSO
NORAD 44209·PAYLOAD·🇨🇳 China

Lancé Apr 29, 2019 depuis Taiyuan Satellite Launch Center

Loading…

Prochains Passages (prochaines 24 heures)

TLE

FraisSource: Space-Track

Époque: Sep 14, 2026, 11:40 UTC

1 44209U 19024C   26257.48631398  .00001263  00000-0  67794-4 0  9998
2 44209  97.4846 260.2513 0001993  93.0205 267.1257 15.16747997408243

Suivez TIANHUI 2-01B en temps réel avec AllMySat

Download on the App Store